Погода в Александровке

Россия / Оренбургская область     53°04′44″N   53°19′49″E
темп.,
°C
ветер,
м/с
пор.,
м/с
влажн.,
%
обл.,
%
осадки,
мм/ч
давл.,
гПа
погр.,
м
20 апреля, вт
вт2023:00+5вюв6124798 0.0 1027678
02:00+2вюв71344100 0.0 1029556
05:000в713478 0.0 1030537
08:000в712450 0.0 1031688
11:00+4вюв810320 0.0 10321012
14:00+7вюв89260 0.0 10301338
17:00+9вюв78260 0.0 10301444
20:00+7вюв593638 0.0 1029293
21 апреля, ср
ср2123:00+4вюв6134475 0.0 1029395
02:00+2юв41252100 0.0 1030363
05:00+1юв51354100 0.0 1031402
08:00+2юв61451100 0.0 1031620
11:00+6юв91233100 0.0 1030878
14:00+10ююв91128100 0.0 10281178
17:00+11ююв81030100 0.0 10281360
20:00+9ююв61140100 0.0 1028448
22 апреля, чт
чт2223:00+7ююв51055100 0.1 1028965
02:00+6ююв61172100 0.5 10291050
05:00+4ююв71386100 1.6 1029966
08:00+5ююв61272100 0.2 1029817
11:00+5ююв61271100 0.3 1030789
14:00+4ююв61082100 0.1 1030570
17:00+3ююв61296100 3.7 1031564
20:00+3ююв51196100 3.1 1031537
23 апреля, пт
пт2323:00+2юв41098100 5.0 1030408
02:00+3ююв4898100 1.0 1029655
05:00+3вюв2599100 2.1 1028210
08:00+5вюв249450 0.1 1029187
11:00+9вюв347288 0.1 1027658
14:00+12вюв3353100 0.0 10261159
17:00+13юв4552100 0.0 10251081
20:00+10ююв4767100 0.0 1025263
24 апреля, сб
сб2423:00+8ю5888100 0.1 1025382
02:00+7в3691100 0.8 1023413
05:00+7в3486100 1.3 1021181
08:00+6в3591100 1.5 1020707
11:00+6всв3693100 2.7 1018405
14:00+7св2389100 1.1 1017302
17:00+7ссз4591100 4.1 1016303
20:00+7ссз4792100 1.1 1015309